Location: Baix
(44.7118°N, 4.7648°E)
Time: 15:31:02
(UTC+00:00)

Vanguard 3 - Visible Passes

Search period start: 26 November 2020 00:00
Search period end: 06 December 2020 00:00
Orbit: 508 x 3262 km, 33.3° (Epoch: 25 November)

Date Brightness Start Highest point End Pass type
(mag) Time Alt. Az. Time Alt. Az. Time Alt. Az.
26 Nov 10.7 02:07:41 13° SSE 02:07:41 13° SSE 02:09:03 10° SSE visible
26 Nov 10.5 04:12:15 11° SW 04:13:32 11° SSW 04:16:27 10° SSW visible
27 Nov 10.6 03:02:32 13° S 03:02:32 13° S 03:04:38 10° S visible
05 Dec 8.8 18:04:11 10° SSW 18:06:29 13° S 18:07:22 13° SSE visible
